Погода в Карасуке

Погода в Карасуке : погода сейчас, прогноз погоды и архив. Всё, что Вы хотите узнать о погоде в Карасуке!

Хотите узнать прогноз погоды в Карасуке? Тогда Вам сюда: Погода в Карасуке

Поиск расширенной информации на нашем сайте:

Другие новости

Новости СМИ2

Главная страница сайта

Новости сайта

03.07.2017

Напоминаем, что на нашем специализированном сайте Метеоцентр.Азия вы можете получить высокодетализированные автоматические прогнозы погоды по пунктам России, СНГ и мира в авиационном формате (включающие направление и скорость ветра, видимость, явления погоды, количество и форму облачности, нижнюю и верхнюю границу облачности).

Рекомендуем: контейнер прямоугольный с крышкой по низкой цене

Погода в Карасуке - сегодня

Время (UTC), дата Ветер
(°,м/с) 
Видим.   Явления Облачность Т
(°С)
Тd
(°С)
f(%) Тe
(°С)
Pmin
(гПа)
dP
(гПа)
Po
(мм)
O2
(г/м3)
Тmin Tmax R s Состояние
почвы
18 20.02.18 160 (Ю) 20000 м    ясно 
-16.5 -19 81 -17  1031.4  -1.9  762  328           
21 20.02.18 130 (ЮВ) 20000 м    ясно 
-16.1 -18.7 80 -18  1029.2  -2.2  760  327           
00 21.02.18 130 (ЮВ) 20000 м    10/4 600 м средняя 
[Sc|Ac As]
-13.1 -16.7 74 -17  1027.6  -1.4  759  323  -17      22  неравномерный
сухой снег
100% 
03 21.02.18 150 (ЮВ) 20000 м    10/0 средняя 
[As trans]
-13.2 -17.1 72 -18  1025.9  -1.7  758  322           
06 21.02.18 150 (ЮВ) 20000 м    5/0 средняя 
[Ac As]
-9.2 -14.6 65 -14  1024.2  -1.4  757  317           
12 21.02.18 150 (ЮВ) 4{11}  20000 м    9/4 300 м кучево-дожд., средняя 
[Cb cap|Ac As]
-7.9 -13.3 65 -12  1018.9  -2.1  753  314    -6.9       
15 21.02.18 140 (ЮВ) 20000 м    10/5 300 м кучево-дожд., средняя 
[Cb cap|Ac As]
-6.4 -11.1 69 -11  1015.5  -3.2  751  311           
18 21.02.18 150 (ЮВ) 20000 м    10/10 420 м кучево-дожд. 
[Cb cap]
-6.1 -10.9 69 -10  1013.1  -2.4  749  310           
00 22.02.18 240 (ЮЗ) 20000 м  в посл. час ливневой снег  10/10 330 м кучево-дожд. 
[Cb cap]
-4.4 -6 89 -9  1012.1  0.2  748  307  -7.9    0.0  22  неравномерный
сухой снег
100% 
09 22.02.18 250 (З) 5{10}  20000 м    ясно 
-9 -12.7 74 -14  1021.8  2.4  755  316           
12 22.02.18 240 (ЮЗ) 20000 м    3/0 верхняя 
[Ci sp]
-10.9 -13.9 78 -16  1024  2.1  757  319    -4.4       
15 22.02.18 220 (ЮЗ) 20000 м    ясно 
-16.4 -18.5 84 -21  1025.5  1.2  758  326           
18 22.02.18 220 (ЮЗ) 20000 м    ясно 
-14.3 -16.3 85 -20  1025.5  758  323           
21 22.02.18 210 (ЮЗ) 20000 м    ясно 
-13.9 -16.2 83 -20  1024.8  -0.6  757  323           
00 23.02.18 220 (ЮЗ) 20000 м    10/10 700 м 
[Sc]
-13 -15.4 82 -19  1023.9  -0.8  756  321  -16.4      22  неравномерный
сухой снег
100% 
03 23.02.18 220 (ЮЗ) 20000 м  {ливн. осадки}  10/0 средняя 
[As op]
-12.5 -14.7 84 -18  1024.1  0.2  757  321           
06 23.02.18 240 (ЮЗ) 20000 м  {ливн. осадки}  9/0 верхняя 
[Ci sp]
-11.3 -14.4 78 -16  1024.6  0.6  757  320           
09 23.02.18 240 (ЮЗ) 20000 м    10/0 средняя, верхняя 
[Ac As|Ci sp]
-10.3 -14 74 -15  1024.4  -0.1  757  318           
12 23.02.18 230 (ЮЗ) 20000 м    10/3 300 м кучево-дожд., средняя, верхняя 
[Cb cap|Ac As|Ci sp]
-12.9 -15.8 79 -16  1024.6  757  322    -9.8  0.0     
15 23.02.18 210 (ЮЗ) 20000 м    6/0 верхняя 
[Ci sp]
-16 -18.3 82 -18  1024.4  -0.4  757  325           
18 23.02.18 тихо ()   20000 м    ясно 
-18.6 -20.9 82 -19  1024.1  -0.5  756  329           
00 24.02.18 тихо ()   20000 м  в посл. час ливневой снег  ясно 
-19.8 -22.2 81 -20  1023.2  -0.4  756  330  -20    0.0  22  неравномерный
сухой снег
100% 
03 24.02.18 150 (ЮВ) 20000 м    ясно 
-20 -22.5 80 -20  1023.2  756  330  -21.2         
06 24.02.18 230 (ЮЗ) 20000 м    3/0 верхняя 
[Ci sp]
-14.4 -17.6 77 -17  1023.5  0.6  756  323           
09 24.02.18 280 (З) 20000 м    5/0 верхняя 
[Ci sp]
-11.8 -16.1 70 -14  1023.6  0.2  756  320           
Время (UTC), дата Ветер
(°,м/с) 
Видим.   Явления Облачность Т
(°С)
Тd
(°С)
f(%) Тe
(°С)
Pmin
(гПа)
dP
(гПа)
Po
(мм)
O2
(г/м3)
Тmin Tmax R s Состояние
почвы

Для получения пояснительной информации подведите курсор к названию столбца.

ПОГОДА в Карасуке - архив

Всё, что Вы хотите узнать о погоде в Карасуке - удобно и подробно!

Выберите нужную дату (начиная с 1 января 2015* года) и нажмите кнопку "Найти".
Будут отображены архивные сводки погоды по пункту Карасук, начиная с указанной даты.


Отображать данные в формате CSV (для использования в таблицах Excel)


Внимание! Наш архив погоды предназначен исключительно для личного некоммерческого использования в познавательных целях. Если Вам необходимы официальные справки о состоянии погоды (для производственных, юридических, коммерческих и т.п. целей), обращайтесь в органы Росгидромета.

*Примечание: данная дата относится к архиву по метеостанциям СССР (Россия, СНГ, Балтия).
Архив по метеостанциям Зарубежной Европы и Азии (кроме Китая) хранится 10 дней, по другим регионам земного шара (Китай, Африка, Америка, Австралия, Океания) - 1 день.

Карасук - район местоположения метеостанции


Название, широта, долгота, высота метеостанции:
Карасук 53.7°ш. 78.1°д. 115 м над ур. моря [Российская Федерация]

Дополнительная информация

В oтличие oт бoльшинства пoгoдных сайтoв мы публикуем пoдрoбную метеoинфoрмацию в детальнoм прoфессиoнальнoм фoрмате.

Характеристики температуры и влажнoсти вoздуха измеряются на высoте 2 м в тени вдали oт зданий и деревьев.
Скoрoсть ветра измеряется на высoте 10 м (на урoвне рoста челoвека скoрoсть ветра ниже в 1.5-2 раза). Если метеoстанция нахoдится в гoрoде или в лесу, тo скoрoсть ветра занижена на 2-4 м/с пo сравнению с oткрытым местoм. Скoрoсть ветра над акватoриями крупных рек и oзёр, а также на вершинах хoлмoв на 2-5 м/с выше, чем в oбычных услoвиях.
Атмoсфернoе давление в разных тoчках местнoсти мoжет значительнo oтличаться oт давления на метеoстанции, в зависимoсти oт услoвий рельефа (при пoдъёме на 10 м давление пoнижается примернo на 1 мм рт.ст.).